Vertical_Velocity
-1 -2 -2 -3 -3 -2 -2 -1 -1 -2 -2 -3 -3 -3 -3 -2 -2 -2 -2 -2 -2 -3 -3 -2 -2 -1 -1 -1 -1 -1 -1 -1 -0 0 1 1 0 0 0 0 -0 -1 -1 -1 -1 -1 -1 -1 -1 -1 -1 -1 -2 -2 -2 -3 -3 -3 -3 -3 -3 -2 -1 -0 1 1 1 0 -0
-0 -0 -0 -1 -1 -1 -1 -1 -0 -0 -1 -1 -2 -3 -3 -2 -2 -2 -2 -1 -1 -2 -2 -2 -1 -1 -1 -1 -1 -1 -1 -2 -1 -0 0 1 1 1 1 0 0 -0 -1 -1 -1 -1 -1 -1 -1 -1 -1 -1 -1 -1 -2 -2 -3 -3 -4 -3 -3 -2 -1 -1 0 1 1 0 -0
-0 -0 0 1 0 -0 -1 -1 -0 0 0 -0 -1 -1 -2 -2 -2 -2 -2 -1 -1 -1 -2 -2 -2 -1 -1 -1 -1 -0 -0 -1 -1 -1 -1 0 1 1 1 1 0 0 -0 -0 -1 -1 -1 -1 -1 -1 -0 -0 -1 -1 -1 -2 -3 -4 -4 -4 -3 -3 -2 -1 0 1 1 -0 -1
-0 -0 -0 0 -0 -0 -1 -1 -1 -1 -0 0 -0 -1 -1 -1 -1 -2 -2 -1 -1 -1 -1 -2 -2 -1 -1 -1 -0 -0 0 0 -0 -1 -1 -0 0 1 1 1 1 1 0 0 -0 -0 -1 -1 -1 -0 0 0 0 -0 -1 -2 -4 -5 -5 -5 -4 -3 -2 -1 0 1 0 -1 -2
-0 -0 -0 -1 -1 -1 -1 -1 -1 -1 -1 -0 -0 -1 -1 -0 -1 -1 -1 -1 -1 -0 -0 -0 -1 -1 -1 -0 -0 -0 0 1 1 1 0 -0 0 1 2 2 1 1 1 1 1 0 -0 -0 -0 0 1 1 1 0 -1 -3 -4 -5 -5 -6 -5 -3 -2 0 1 0 -1 -3 -2
-2 -2 -2 -1 -1 -1 -1 -1 -1 -1 -1 -0 -0 -0 -0 -0 -0 -0 -1 -1 -0 0 1 1 0 -0 -0 0 0 -0 -0 0 1 2 1 0 1 1 2 2 2 2 1 1 1 1 1 0 0 1 2 2 2 0 -1 -2 -3 -5 -6 -5 -3 -2 0 1 1 -1 -2 -2 1
-2 -2 -2 -2 -1 -1 -1 -0 -0 -0 -0 -0 0 0 0 0 1 1 1 0 0 0 1 1 1 0 0 0 -0 -0 -0 -0 1 2 2 1 1 2 2 2 2 2 1 1 1 1 1 1 1 1 2 3 3 3 2 -0 -4 -6 -7 -5 -2 -0 1 1 -0 -1 -1 1 2
-1 -1 -1 -1 -1 -0 -0 -0 0 0 0 0 0 1 1 1 1 1 1 1 1 1 1 1 1 1 1 0 0 0 -0 0 1 1 2 2 2 2 2 2 2 1 1 1 1 1 1 1 1 2 4 5 5 4 3 -1 -5 -7 -7 -6 -3 -1 0 -1 -2 -1 1 2 1
-0 -0 -0 -0 0 0 1 0 1 1 1 1 1 1 1 1 1 1 1 2 2 2 1 1 1 1 1 1 1 1 1 0 1 1 2 2 2 2 2 2 1 1 1 1 1 1 1 1 2 4 6 7 7 5 2 -3 -5 -6 -6 -6 -3 -1 -1 -3 -2 -1 1 2 3
-1 -1 -0 -0 0 1 1 1 1 1 2 2 2 2 2 2 2 2 2 1 1 1 1 0 0 -0 0 1 1 1 1 0 0 1 1 2 2 1 1 0 0 1 1 2 2 2 2 2 4 6 7 8 7 3 -0 -4 -5 -5 -5 -5 -3 -1 -0 -1 -2 -1 2 4 5
-1 -1 -1 -0 -0 0 1 1 2 2 2 2 2 2 2 2 2 2 1 1 0 0 0 0 -1 -1 -1 -1 -0 0 0 0 0 0 0 0 1 0 0 -0 -0 0 1 2 2 2 2 4 6 7 8 9 6 1 -3 -6 -5 -4 -3 -3 -2 1 2 0 -1 1 3 5 5
-1 -1 -0 -0 0 1 1 1 2 2 2 1 1 1 0 0 -0 0 0 0 -0 -0 -0 -0 -1 -2 -2 -2 -2 -1 -0 -0 0 -0 -0 -1 -1 -1 -1 -0 0 1 1 2 2 2 3 6 8 7 6 8 4 -1 -5 -6 -4 -2 -1 0 1 1 2 2 2 3 4 5 4
-0 -0 0 0 1 1 1 1 1 1 0 -0 -1 -1 -1 -1 -1 -1 -1 -1 -1 -1 -1 -1 -1 -2 -3 -3 -3 -2 -2 -1 -0 -0 -1 -1 -2 -2 -2 -1 1 2 2 2 2 3 5 8 7 5 4 6 4 -0 -4 -3 -1 -0 1 2 2 2 2 3 4 4 4 4 3
-0 0 0 0 0 0 -0 -0 -1 -1 -1 -1 -2 -2 -2 -2 -1 -1 -1 -1 -2 -2 -2 -2 -2 -1 -2 -2 -3 -2 -2 -1 -1 -1 -1 -2 -3 -3 -2 -0 1 2 3 3 4 6 7 6 4 2 3 4 3 1 -1 0 1 1 1 2 2 2 2 3 3 4 4 4 4
-0 0 0 0 -0 -1 -1 -2 -2 -2 -2 -2 -2 -2 -2 -2 -1 -1 -1 -2 -2 -2 -3 -3 -2 -1 -1 -1 -1 -1 -1 -1 -1 -2 -2 -3 -3 -3 -1 0 2 2 4 7 11 11 7 -0 -2 -2 0 2 2 1 1 2 1 1 1 2 2 2 2 3 3 4 4 4 5
-1 -1 -0 -1 -1 -2 -2 -2 -2 -2 -2 -2 -2 -2 -2 -1 -1 -1 -2 -2 -2 -2 -2 -2 -3 -2 -1 0 0 0 -0 -0 -1 -2 -3 -4 -3 -2 -0 1 2 4 8 17 16 9 1 -4 -5 -4 -1 5 4 4 3 2 1 1 1 2 2 2 2 3 4 4 4 4 4
-1 -1 -1 -1 -2 -2 -2 -2 -2 -2 -2 -1 -1 -1 -1 -1 -1 -1 -2 -3 -3 -3 -2 -2 -2 -2 -1 0 1 1 0 -1 -1 -2 -3 -3 -3 -1 0 1 3 8 13 17 7 1 -3 -3 -6 -7 -4 4 9 10 8 5 4 3 3 3 3 3 3 3 3 3 3 2 2
-2 -2 -2 -2 -2 -2 -2 -2 -2 -2 -1 -1 -1 -1 -1 -1 -1 -1 -2 -2 -3 -3 -3 -2 -1 0 1 1 2 1 1 -0 -1 -1 -2 -2 -1 -0 1 1 4 9 13 10 5 5 5 0 -6 -9 -7 -2 6 11 13 10 7 6 5 6 6 5 3 2 1 0 -0 -1 -0
-2 -2 -2 -2 -2 -2 -2 -2 -2 -1 -1 -1 -0 -0 0 -0 -1 -2 -2 -2 -2 -2 -2 -1 -0 1 2 3 3 2 1 0 -1 -1 -1 -1 -0 0 1 1 5 8 11 9 11 13 10 -1 -6 -8 -7 -5 0 6 9 8 6 5 6 7 6 5 3 2 -0 -2 -3 -2 -0
-3 -3 -3 -2 -2 -2 -2 -2 -2 -1 -1 -0 0 0 0 0 -1 -2 -3 -3 -3 -2 -1 -0 1 2 3 3 3 2 1 -0 -2 -2 -2 -0 1 1 1 3 8 13 17 19 21 17 8 -5 -5 -5 -4 -4 -2 0 2 2 1 3 4 5 4 3 2 0 -2 -3 -2 -1 -0
-3 -3 -3 -3 -3 -3 -3 -2 -2 -1 -1 0 0 0 -0 -0 -2 -3 -4 -4 -3 -1 0 2 3 3 3 2 1 0 -1 -2 -3 -3 -1 1 2 3 5 11 19 26 31 34 28 16 3 -5 -2 -0 -0 -2 -2 -1 -0 -0 -0 1 3 2 0 0 -0 -1 -2 -2 -1 0 -0
-3 -3 -3 -2 -3 -3 -3 -2 -1 -1 -0 -0 -0 -0 -1 -1 -3 -4 -4 -4 -2 -1 1 3 5 5 4 2 -0 -2 -3 -2 -3 -2 -0 2 5 9 14 21 30 35 35 31 16 5 -2 -3 -1 0 -0 -1 -1 1 2 2 2 2 2 0 -1 -2 -2 -2 -2 -2 -0 0 0
-3 -3 -3 -3 -3 -3 -2 -2 -1 -1 -0 -1 -1 -1 -1 -2 -3 -4 -4 -3 -2 0 2 5 7 6 4 1 -2 -4 -4 -3 -2 -1 2 5 10 16 22 29 32 30 23 11 6 7 7 2 2 1 0 -1 -1 1 3 5 4 3 2 -0 -2 -3 -3 -3 -1 -0 1 1 2
-3 -3 -3 -3 -3 -2 -2 -1 -1 -1 -1 -2 -2 -2 -2 -3 -4 -4 -4 -3 -2 0 3 7 7 5 2 -1 -3 -4 -4 -4 -2 1 4 9 14 20 25 28 24 17 9 -2 31 39 30 15 12 11 10 6 3 4 6 7 4 2 0 1 0 -1 -2 -1 1 2 3 3 3
-3 -3 -3 -3 -2 -2 -1 -1 -2 -2 -2 -2 -2 -3 -3 -3 -4 -5 -5 -5 -3 1 4 7 5 2 -1 -2 -3 -3 -4 -4 -2 1 4 9 14 20 23 22 15 7 1 3 69 67 36 18 16 14 12 10 11 13 14 13 7 4 4 6 4 2 1 1 2 2 2 2 2
-3 -2 -2 -2 -2 -1 -1 -2 -2 -2 -2 -2 -2 -3 -3 -4 -5 -6 -6 -6 -3 1 4 5 2 -1 -3 -3 -3 -4 -4 -4 -2 -0 2 5 9 15 18 17 11 0 2 29 60 47 20 6 5 5 6 7 14 18 19 16 10 7 6 6 4 2 1 1 1 1 1 1 -0
-3 -2 -2 -2 -1 -1 -1 -1 -2 -2 -2 -2 -3 -3 -3 -4 -4 -6 -6 -6 -3 1 3 3 0 -2 -3 -3 -4 -5 -6 -5 -3 -2 -0 1 3 9 14 16 7 -0 8 46 36 19 5 1 3 5 8 11 16 19 19 14 6 2 0 -1 -1 -1 -0 0 0 1 1 1 -1
-3 -2 -2 -2 -1 -1 -1 -2 -2 -2 -2 -3 -3 -3 -3 -3 -4 -6 -7 -6 -4 -2 -1 -0 -0 -1 -2 -4 -5 -6 -6 -5 -4 -3 -2 -1 0 5 11 16 8 8 18 41 22 8 1 3 7 12 15 17 18 17 13 4 -4 -8 -7 -5 -3 -0 1 1 1 1 2 2 1
-3 -3 -3 -2 -1 -2 -2 -3 -3 -3 -3 -3 -3 -3 -3 -4 -5 -6 -6 -5 -5 -5 -5 -3 -1 -1 -3 -5 -6 -6 -6 -5 -5 -4 -3 -2 -1 2 7 14 12 21 32 36 10 1 0 3 8 14 18 20 18 14 6 -4 -9 -10 -8 -5 -0 2 3 2 1 1 2 2 3
-3 -3 -2 -2 -2 -2 -3 -3 -3 -3 -3 -3 -3 -3 -3 -4 -4 -5 -5 -6 -7 -6 -4 -2 -0 0 -1 -4 -5 -6 -6 -5 -5 -4 -3 -3 -2 -0 4 9 12 25 37 36 6 -3 -1 1 5 11 16 20 18 12 5 -3 -6 -6 -4 -1 3 5 4 2 1 -0 -0 0 1
-4 -3 -2 -2 -2 -3 -3 -3 -3 -3 -3 -3 -3 -3 -3 -4 -4 -4 -5 -5 -6 -6 -4 -1 1 3 2 0 -3 -4 -5 -5 -5 -5 -4 -4 -3 -1 1 4 9 24 39 40 8 -2 -1 -1 1 4 11 18 16 12 6 0 -1 -0 2 4 5 5 4 2 1 -0 -1 -1 -2
-3 -3 -3 -3 -3 -3 -3 -3 -3 -3 -3 -3 -3 -3 -4 -4 -4 -3 -2 -2 -4 -6 -7 -6 -3 -0 1 1 -1 -3 -4 -5 -5 -5 -5 -4 -3 -2 -1 0 4 21 39 47 11 -2 -2 -1 -1 0 3 8 13 12 8 3 0 1 3 4 3 2 2 1 0 0 -0 -1 -4
-3 -3 -3 -3 -3 -3 -4 -4 -3 -3 -3 -4 -4 -4 -3 -3 -2 -1 1 1 -2 -6 -9 -9 -8 -5 -3 -0 -0 -1 -3 -5 -5 -4 -4 -4 -3 -2 -2 -3 -2 12 31 49 12 -2 -3 -1 -1 -1 0 2 5 9 10 7 3 1 0 0 -0 -0 -0 -1 -1 -1 -1 -2 -4
-3 -3 -3 -4 -4 -4 -4 -4 -3 -3 -3 -3 -4 -4 -3 -3 -2 0 2 2 -1 -4 -6 -7 -7 -6 -5 -2 -0 0 -0 -2 -3 -4 -4 -3 -2 -1 -2 -4 -5 3 21 47 13 -2 -5 -2 -1 -1 0 2 2 3 5 7 6 4 2 -0 -2 -2 -2 -2 -2 -2 -2 -2 -4
-4 -4 -4 -4 -4 -3 -3 -4 -3 -3 -3 -3 -3 -3 -3 -3 -2 -0 1 0 -1 -2 -3 -4 -5 -5 -4 -4 -1 0 1 0 -1 -2 -3 -2 -1 -0 -1 -2 -5 -2 12 41 13 -2 -7 -4 -4 -3 -2 -0 1 2 2 3 4 4 4 3 2 1 -0 -0 -1 -1 -2 -2 -2
-4 -5 -5 -4 -4 -4 -3 -4 -4 -4 -4 -4 -3 -3 -2 -2 -0 0 -0 -1 -2 -2 -3 -4 -5 -5 -5 -5 -4 -3 -2 -1 -1 -1 -1 -1 0 0 0 0 -2 -4 5 32 11 -1 -6 -6 -7 -7 -8 -7 -6 -4 -3 -1 -0 1 2 2 2 1 1 2 1 1 -0 -1 -0
-5 -5 -5 -4 -4 -4 -4 -4 -4 -4 -4 -4 -4 -3 -2 -1 -0 -0 -1 -3 -3 -4 -5 -6 -6 -6 -6 -6 -6 -6 -5 -3 -2 -2 -1 -1 -0 -0 -0 1 -0 -4 -1 20 10 2 -3 -4 -4 -6 -9 -9 -10 -10 -10 -9 -7 -5 -3 -1 -1 -1 -1 -1 -0 -0 -1 -1 -1
-4 -5 -5 -4 -4 -4 -4 -4 -4 -5 -5 -4 -4 -3 -2 -2 -1 -1 -2 -4 -4 -5 -6 -7 -8 -8 -7 -6 -6 -5 -5 -5 -4 -3 -2 -2 -2 -1 -1 0 0 -3 -3 7 6 3 -1 -4 -1 -2 -4 -5 -6 -8 -9 -9 -9 -8 -6 -4 -3 -3 -3 -4 -3 -3 -3 -3 -2
-4 -4 -4 -4 -4 -4 -4 -5 -5 -5 -4 -4 -4 -3 -2 -2 -2 -2 -2 -3 -3 -4 -5 -7 -8 -8 -7 -5 -5 -4 -4 -4 -4 -3 -3 -2 -2 -2 -1 1 1 -1 -3 -1 2 2 -2 -5 -1 1 1 -1 -2 -3 -4 -4 -4 -4 -4 -3 -2 -2 -3 -4 -4 -5 -5 -5 -4
-4 -4 -4 -5 -4 -4 -5 -5 -5 -5 -5 -4 -3 -3 -3 -3 -2 -0 -0 -0 -2 -3 -4 -6 -6 -7 -6 -5 -3 -3 -3 -3 -3 -3 -3 -2 -1 -1 0 1 0 -1 -2 -2 -1 -1 -1 -4 -2 -0 1 -0 -1 -2 -2 -2 -1 -1 -1 -1 -0 -0 -0 -1 -2 -3 -3 -4 -4
-3 -3 -4 -5 -5 -5 -5 -5 -5 -5 -5 -4 -4 -4 -4 -2 -0 1 1 0 -1 -3 -4 -5 -5 -5 -5 -4 -3 -2 -2 -3 -3 -3 -2 -1 -1 -0 0 0 -0 -1 -1 -1 -2 -2 -1 -1 -2 -2 -1 -0 -1 -1 -1 -0 -0 -0 -1 -1 -0 -0 -0 -0 -0 -1 -1 -2 -3
Height
3023 3020 3017 3014 3012 3009 3006 3004 3001 2998 2996 2993 2991 2988 2986 2983 2981 2979 2977 2974 2972 2970 2968 2965 2963 2961 2959 2957 2955 2953 2951 2950 2948 2947 2945 2943 2942 2941 2940 2938 2937 2936 2934 2933 2932 2931 2930 2929 2928 2928 2927 2926 2925 2924 2923 2922 2921 2919 2919 2918 2918 2918 2918 2918 2918 2918 2918 2917 2917
3022 3019 3016 3013 3010 3008 3005 3002 2999 2997 2994 2991 2988 2986 2983 2981 2979 2976 2974 2972 2969 2967 2965 2963 2960 2958 2956 2954 2952 2950 2948 2947 2945 2943 2942 2941 2939 2938 2937 2936 2934 2933 2932 2931 2930 2929 2928 2927 2926 2926 2925 2924 2923 2922 2921 2919 2918 2918 2917 2917 2917 2916 2916 2916 2916 2916 2916 2915 2915
3020 3017 3014 3012 3008 3006 3003 3000 2998 2995 2992 2989 2987 2984 2981 2979 2976 2974 2972 2969 2967 2964 2962 2960 2958 2955 2953 2951 2949 2947 2945 2943 2942 2940 2939 2938 2936 2935 2934 2933 2932 2931 2930 2928 2927 2926 2925 2924 2924 2923 2923 2922 2921 2920 2919 2918 2917 2916 2915 2915 2915 2915 2915 2915 2915 2914 2914 2914 2914
3019 3016 3013 3010 3007 3004 3001 2998 2995 2993 2990 2988 2985 2982 2979 2977 2974 2972 2969 2967 2964 2962 2960 2957 2955 2953 2950 2948 2946 2944 2943 2941 2939 2937 2936 2934 2933 2932 2931 2930 2929 2928 2927 2926 2925 2924 2923 2922 2922 2921 2921 2920 2919 2918 2917 2916 2915 2914 2914 2914 2914 2914 2913 2913 2913 2913 2913 2913 2913
3017 3014 3011 3008 3005 3002 2999 2996 2993 2991 2988 2986 2983 2980 2978 2975 2972 2970 2967 2965 2962 2960 2957 2955 2952 2950 2948 2946 2943 2942 2940 2938 2936 2934 2933 2931 2930 2929 2928 2927 2926 2925 2924 2923 2923 2922 2921 2920 2920 2919 2919 2918 2918 2917 2916 2914 2914 2913 2913 2913 2913 2913 2913 2912 2912 2912 2912 2912 2912
3015 3012 3009 3006 3003 3000 2997 2994 2992 2989 2986 2984 2981 2978 2976 2973 2970 2968 2965 2962 2960 2957 2955 2952 2950 2947 2945 2943 2941 2939 2937 2935 2933 2931 2930 2928 2927 2926 2925 2924 2923 2923 2922 2921 2920 2919 2918 2918 2918 2918 2917 2917 2916 2915 2914 2913 2913 2912 2912 2913 2912 2912 2911 2911 2911 2911 2911 2912 2912
3013 3010 3007 3004 3001 2998 2995 2993 2990 2987 2985 2982 2979 2977 2974 2971 2968 2965 2963 2960 2957 2954 2952 2949 2947 2945 2942 2940 2938 2936 2934 2932 2930 2928 2927 2925 2924 2923 2922 2921 2921 2920 2919 2918 2918 2917 2916 2916 2916 2916 2916 2915 2915 2914 2913 2912 2911 2911 2911 2912 2911 2911 2910 2910 2910 2910 2911 2911 2911
3012 3009 3005 3003 2999 2997 2994 2991 2988 2985 2983 2980 2977 2974 2972 2968 2966 2963 2960 2957 2954 2952 2949 2947 2944 2942 2939 2937 2935 2933 2930 2928 2927 2925 2923 2922 2921 2920 2919 2918 2918 2917 2916 2916 2915 2915 2914 2914 2914 2914 2914 2914 2913 2913 2912 2911 2910 2910 2911 2911 2911 2910 2910 2910 2910 2910 2911 2911 2911
3010 3007 3004 3001 2998 2995 2992 2989 2986 2983 2981 2978 2975 2972 2969 2966 2963 2960 2957 2955 2952 2949 2946 2944 2941 2939 2937 2935 2932 2930 2928 2926 2924 2922 2920 2919 2918 2917 2916 2915 2915 2914 2913 2913 2913 2913 2912 2912 2913 2912 2912 2912 2912 2911 2910 2909 2909 2910 2910 2910 2910 2909 2909 2909 2910 2910 2910 2910 2910
3009 3006 3003 2999 2996 2993 2990 2988 2985 2982 2979 2976 2973 2970 2967 2964 2961 2958 2955 2952 2949 2947 2944 2941 2939 2937 2934 2932 2930 2927 2925 2923 2921 2919 2918 2916 2915 2914 2913 2912 2912 2911 2911 2911 2910 2910 2910 2911 2911 2911 2911 2911 2911 2910 2909 2908 2909 2909 2909 2909 2909 2909 2909 2909 2910 2910 2909 2909 2909
3008 3004 3001 2998 2995 2992 2989 2986 2983 2980 2977 2974 2971 2968 2965 2962 2959 2956 2953 2950 2947 2944 2942 2939 2937 2934 2932 2930 2927 2925 2923 2921 2918 2917 2915 2913 2912 2911 2910 2910 2909 2908 2908 2908 2908 2908 2908 2909 2909 2909 2910 2909 2909 2908 2908 2908 2908 2908 2908 2908 2908 2908 2908 2909 2909 2909 2909 2908 2908
3006 3003 2999 2996 2993 2990 2988 2985 2982 2978 2976 2973 2969 2966 2963 2960 2957 2954 2951 2948 2945 2943 2940 2938 2935 2933 2930 2928 2925 2923 2921 2919 2917 2915 2913 2911 2910 2909 2908 2907 2907 2906 2906 2906 2906 2907 2907 2908 2908 2908 2908 2908 2908 2907 2907 2908 2908 2908 2907 2908 2908 2908 2908 2908 2908 2908 2908 2908 2908
3004 3001 2998 2995 2992 2989 2986 2983 2980 2977 2974 2971 2968 2964 2961 2958 2955 2952 2949 2946 2944 2941 2938 2936 2934 2931 2929 2926 2924 2922 2919 2917 2915 2913 2911 2909 2908 2907 2906 2905 2905 2905 2905 2905 2905 2905 2906 2907 2907 2907 2907 2907 2907 2907 2907 2907 2907 2907 2907 2907 2908 2908 2908 2908 2908 2908 2907 2907 2907
3003 3000 2997 2994 2991 2988 2985 2982 2979 2976 2973 2969 2966 2963 2959 2956 2953 2950 2948 2945 2943 2940 2938 2935 2933 2930 2928 2925 2923 2920 2918 2916 2913 2911 2909 2908 2906 2905 2904 2904 2903 2903 2904 2904 2904 2905 2905 2906 2905 2905 2906 2906 2906 2906 2906 2907 2907 2907 2907 2907 2907 2907 2907 2907 2907 2907 2906 2906 2905
3003 3000 2997 2993 2990 2987 2984 2981 2978 2974 2971 2968 2964 2961 2958 2955 2952 2949 2946 2944 2942 2939 2937 2934 2932 2929 2927 2924 2921 2919 2916 2914 2912 2910 2908 2907 2905 2904 2903 2903 2903 2903 2903 2904 2905 2905 2905 2904 2904 2904 2905 2905 2905 2906 2906 2906 2906 2907 2907 2907 2907 2907 2907 2907 2906 2906 2905 2905 2905
3003 2999 2996 2993 2989 2986 2983 2979 2976 2973 2969 2966 2963 2959 2956 2953 2951 2948 2945 2943 2941 2938 2936 2934 2931 2928 2925 2923 2920 2917 2915 2913 2911 2909 2907 2906 2904 2903 2903 2903 2903 2903 2904 2905 2905 2905 2904 2904 2904 2904 2904 2905 2905 2905 2906 2906 2906 2906 2906 2906 2906 2906 2906 2906 2906 2905 2905 2904 2904
3002 2998 2995 2992 2988 2985 2982 2978 2975 2972 2968 2965 2962 2958 2955 2952 2949 2947 2945 2943 2940 2938 2936 2933 2930 2927 2924 2921 2918 2916 2913 2912 2910 2908 2906 2905 2904 2903 2903 2903 2904 2905 2905 2905 2905 2905 2904 2904 2903 2903 2903 2904 2904 2905 2905 2905 2905 2905 2905 2905 2906 2906 2906 2906 2905 2905 2904 2903 2903
3001 2998 2994 2991 2987 2984 2980 2977 2974 2971 2968 2964 2961 2958 2954 2952 2949 2947 2944 2942 2940 2938 2935 2933 2929 2926 2923 2920 2918 2915 2913 2911 2909 2908 2906 2905 2904 2903 2904 2904 2905 2905 2906 2906 2905 2905 2904 2903 2902 2902 2902 2902 2903 2903 2904 2904 2904 2904 2904 2905 2905 2905 2905 2905 2905 2904 2903 2903 2902
3000 2997 2993 2989 2986 2983 2979 2976 2973 2970 2967 2963 2960 2957 2954 2951 2948 2946 2944 2942 2940 2938 2935 2932 2929 2926 2923 2920 2918 2915 2913 2911 2909 2908 2906 2905 2905 2905 2906 2906 2906 2905 2905 2904 2904 2903 2902 2901 2901 2900 2901 2901 2902 2902 2903 2903 2903 2903 2904 2904 2904 2904 2904 2904 2904 2903 2903 2902 2902
2999 2995 2992 2988 2985 2982 2979 2976 2973 2969 2966 2962 2959 2956 2953 2951 2948 2946 2944 2942 2940 2938 2935 2932 2929 2926 2923 2920 2918 2916 2913 2912 2910 2908 2907 2906 2906 2907 2907 2907 2905 2904 2903 2903 2902 2901 2900 2900 2899 2899 2900 2900 2901 2901 2902 2902 2902 2903 2903 2903 2903 2903 2903 2903 2903 2903 2903 2902 2901
2998 2995 2991 2988 2984 2981 2978 2975 2972 2968 2965 2962 2958 2955 2953 2950 2948 2946 2944 2943 2941 2938 2935 2932 2929 2926 2923 2921 2918 2916 2914 2912 2911 2909 2908 2908 2908 2908 2907 2906 2904 2903 2903 2902 2901 2900 2899 2899 2899 2899 2899 2900 2900 2901 2901 2901 2902 2902 2903 2903 2903 2903 2903 2903 2902 2902 2902 2902 2901
2998 2994 2991 2987 2984 2981 2977 2974 2971 2968 2964 2961 2958 2955 2953 2950 2948 2947 2945 2943 2941 2938 2935 2933 2930 2927 2924 2921 2919 2917 2915 2913 2912 2911 2910 2909 2909 2908 2907 2905 2904 2903 2903 2902 2901 2900 2899 2899 2899 2899 2899 2900 2900 2901 2901 2901 2902 2902 2903 2902 2902 2902 2902 2902 2902 2902 2902 2902 2901
2998 2994 2990 2987 2984 2980 2977 2973 2970 2967 2964 2960 2958 2955 2953 2950 2949 2947 2946 2944 2941 2939 2936 2933 2931 2928 2925 2922 2920 2918 2916 2914 2913 2912 2911 2911 2910 2909 2908 2906 2905 2905 2904 2902 2901 2901 2901 2900 2900 2900 2900 2900 2900 2900 2901 2901 2902 2902 2902 2902 2902 2902 2902 2902 2902 2902 2902 2901 2901
2998 2994 2990 2987 2983 2980 2977 2973 2970 2967 2963 2960 2957 2955 2953 2951 2949 2948 2946 2944 2942 2939 2937 2934 2932 2929 2926 2923 2921 2919 2918 2916 2915 2914 2913 2912 2911 2910 2909 2908 2907 2906 2904 2902 2906 2906 2904 2902 2902 2902 2902 2902 2901 2901 2901 2902 2902 2902 2902 2902 2902 2902 2902 2902 2902 2902 2902 2901 2901
2998 2994 2991 2987 2984 2980 2977 2973 2970 2967 2963 2960 2957 2955 2953 2951 2950 2948 2947 2945 2943 2940 2938 2935 2932 2929 2927 2924 2923 2921 2919 2918 2917 2915 2914 2913 2912 2911 2910 2909 2908 2907 2905 2904 2913 2911 2905 2904 2903 2903 2903 2903 2902 2902 2902 2902 2902 2902 2902 2902 2902 2902 2902 2902 2902 2902 2902 2901 2901
2998 2995 2991 2988 2984 2981 2977 2973 2970 2967 2963 2960 2958 2955 2953 2952 2950 2949 2947 2945 2943 2941 2938 2936 2933 2930 2928 2926 2924 2922 2921 2919 2918 2917 2915 2914 2913 2912 2912 2911 2910 2907 2907 2910 2912 2909 2905 2904 2904 2903 2903 2903 2903 2903 2902 2902 2902 2903 2903 2902 2902 2902 2902 2902 2902 2902 2901 2901 2900
2999 2995 2991 2988 2984 2981 2977 2973 2970 2967 2963 2960 2958 2955 2954 2952 2951 2949 2948 2946 2944 2942 2939 2937 2934 2931 2929 2927 2925 2924 2922 2921 2919 2918 2917 2915 2914 2913 2913 2913 2911 2908 2909 2913 2910 2907 2905 2905 2905 2904 2904 2903 2903 2903 2902 2902 2903 2903 2903 2902 2902 2902 2902 2902 2902 2902 2901 2900 2900
2999 2995 2992 2988 2984 2981 2977 2973 2970 2967 2963 2961 2958 2956 2954 2953 2951 2950 2948 2947 2945 2943 2940 2938 2935 2933 2931 2928 2927 2925 2924 2923 2921 2920 2918 2917 2916 2915 2914 2914 2912 2911 2912 2913 2909 2907 2906 2906 2906 2906 2905 2904 2903 2903 2903 2902 2902 2903 2903 2903 2903 2903 2902 2902 2902 2901 2901 2900 2899
3000 2996 2992 2988 2984 2981 2977 2973 2970 2967 2964 2961 2959 2957 2955 2953 2952 2951 2949 2948 2945 2943 2941 2938 2936 2934 2932 2930 2928 2927 2925 2924 2923 2921 2920 2919 2918 2916 2916 2915 2913 2913 2915 2914 2910 2908 2907 2907 2907 2907 2906 2905 2904 2903 2903 2902 2903 2903 2903 2903 2903 2903 2902 2902 2902 2901 2901 2900 2899
3000 2996 2992 2988 2985 2981 2978 2974 2971 2968 2964 2962 2959 2957 2956 2954 2953 2951 2950 2948 2946 2944 2942 2940 2938 2935 2933 2931 2930 2928 2927 2925 2924 2923 2921 2920 2919 2918 2917 2916 2915 2915 2916 2914 2910 2908 2908 2908 2908 2908 2908 2907 2906 2904 2903 2903 2903 2903 2903 2903 2903 2903 2902 2902 2901 2901 2900 2899 2898
3001 2997 2993 2989 2985 2981 2978 2974 2971 2968 2965 2963 2960 2958 2956 2955 2953 2952 2950 2949 2947 2945 2943 2941 2939 2937 2935 2933 2931 2929 2928 2926 2925 2924 2923 2921 2920 2919 2918 2918 2917 2917 2917 2916 2912 2910 2909 2909 2908 2908 2908 2908 2908 2906 2905 2904 2904 2904 2904 2903 2903 2903 2902 2902 2901 2900 2900 2899 2898
3001 2997 2993 2989 2986 2982 2978 2975 2972 2969 2966 2963 2961 2959 2957 2955 2954 2953 2951 2950 2948 2946 2944 2942 2940 2938 2936 2934 2932 2930 2929 2927 2926 2925 2924 2923 2921 2920 2920 2919 2918 2918 2919 2918 2913 2911 2910 2910 2909 2909 2909 2909 2908 2908 2907 2906 2905 2905 2904 2904 2903 2903 2902 2901 2901 2900 2899 2898 2897
3002 2998 2994 2990 2987 2983 2979 2976 2973 2970 2967 2964 2962 2959 2958 2956 2955 2953 2952 2951 2948 2947 2945 2943 2940 2938 2936 2934 2933 2931 2930 2928 2927 2926 2925 2924 2923 2922 2921 2920 2919 2919 2920 2919 2915 2913 2912 2911 2910 2909 2909 2909 2908 2908 2908 2907 2907 2906 2905 2904 2903 2903 2902 2901 2900 2899 2899 2898 2897
3003 2999 2995 2991 2988 2984 2980 2977 2974 2971 2968 2965 2962 2960 2958 2957 2955 2954 2953 2951 2949 2947 2945 2943 2942 2939 2938 2936 2934 2932 2931 2929 2928 2927 2926 2925 2924 2923 2922 2921 2920 2920 2921 2921 2917 2915 2914 2913 2911 2910 2910 2909 2908 2908 2908 2908 2907 2906 2906 2905 2904 2903 2902 2901 2900 2899 2898 2897 2896
3003 3000 2996 2992 2988 2985 2981 2978 2975 2972 2968 2966 2963 2961 2959 2957 2956 2955 2953 2952 2950 2948 2946 2944 2942 2940 2938 2937 2935 2933 2932 2930 2929 2928 2927 2926 2925 2924 2923 2922 2921 2921 2921 2921 2918 2916 2915 2914 2913 2912 2911 2910 2909 2908 2908 2907 2906 2906 2905 2904 2903 2903 2901 2900 2899 2898 2897 2896 2895
3004 3001 2997 2993 2989 2986 2982 2979 2976 2973 2969 2966 2964 2962 2959 2958 2957 2955 2954 2952 2950 2948 2947 2945 2943 2941 2939 2938 2936 2934 2933 2931 2930 2928 2928 2927 2926 2925 2924 2923 2922 2921 2921 2921 2918 2917 2916 2916 2914 2913 2912 2911 2910 2909 2908 2907 2906 2905 2904 2903 2902 2901 2900 2899 2898 2897 2896 2895 2894
3005 3002 2998 2994 2991 2987 2983 2980 2977 2973 2970 2967 2965 2963 2960 2959 2957 2956 2954 2952 2950 2948 2947 2945 2943 2941 2939 2938 2936 2935 2934 2932 2931 2930 2928 2928 2927 2926 2925 2924 2923 2921 2921 2921 2919 2917 2917 2916 2915 2914 2913 2912 2911 2910 2909 2908 2907 2905 2904 2903 2901 2900 2899 2898 2897 2896 2895 2894 2893
3006 3003 2999 2995 2992 2988 2984 2981 2977 2974 2971 2968 2966 2963 2962 2959 2958 2956 2954 2952 2950 2948 2947 2945 2943 2941 2939 2938 2937 2936 2934 2933 2932 2931 2930 2929 2928 2927 2926 2925 2923 2922 2921 2922 2920 2918 2917 2916 2915 2914 2913 2912 2911 2909 2908 2907 2906 2905 2903 2902 2901 2899 2898 2897 2896 2895 2894 2893 2892
3007 3003 3000 2996 2993 2989 2985 2982 2978 2975 2972 2969 2967 2964 2962 2960 2958 2956 2954 2953 2951 2949 2947 2945 2943 2941 2940 2938 2937 2936 2935 2934 2933 2932 2931 2930 2929 2928 2927 2926 2924 2923 2922 2921 2920 2919 2918 2917 2916 2914 2913 2911 2910 2909 2908 2906 2905 2904 2903 2901 2900 2899 2898 2896 2895 2894 2893 2892 2891
3008 3005 3001 2998 2994 2990 2986 2983 2979 2976 2973 2970 2967 2965 2963 2961 2959 2957 2955 2953 2951 2949 2948 2946 2944 2942 2940 2939 2938 2936 2935 2934 2933 2932 2932 2931 2930 2929 2928 2927 2925 2924 2923 2922 2921 2920 2918 2917 2916 2914 2913 2911 2910 2909 2908 2906 2904 2903 2902 2900 2899 2898 2897 2895 2894 2893 2891 2890 2889
3009 3006 3002 2999 2995 2991 2988 2984 2980 2977 2974 2971 2968 2966 2963 2962 2960 2958 2956 2954 2952 2950 2948 2946 2944 2942 2941 2939 2938 2937 2936 2935 2934 2933 2932 2932 2931 2930 2929 2928 2926 2925 2923 2922 2921 2920 2919 2918 2916 2914 2913 2912 2910 2909 2908 2906 2904 2903 2901 2899 2898 2897 2895 2894 2893 2891 2890 2888 2887